AEE378 LGAV-LGMK

Flight info

Callsign AEE378
Flight time 0h 21m
Altitude 13000
Route KEA L995 VARIX
Aircraft A320/M-SDE3FGHIRWY/LB1

Departure

Time 2026-05-07 19:31
Airport Athens Eleftherios Venizelos International Airport (LGAV)

Arrival

Time 2026-05-07 19:52
Airport Mykonos Island National Airport (LGMK)
Time Latitude Longitude Altitude Speed Heading
2026-05-07 19:01 37.93836 23.95060 300 ft 0 kts 307°
2026-05-07 19:20 37.93823 23.95083 301 ft 4 kts 307°
2026-05-07 19:20 37.93810 23.95105 300 ft 4 kts 309°
2026-05-07 19:20 37.93792 23.95128 300 ft 4 kts 341°
2026-05-07 19:20 37.93772 23.95124 300 ft 4 kts 38°
2026-05-07 19:21 37.93761 23.95114 300 ft 0 kts 38°
2026-05-07 19:24 37.93773 23.95124 303 ft 5 kts 37°
2026-05-07 19:24 37.93811 23.95162 300 ft 10 kts 37°
2026-05-07 19:24 37.93862 23.95237 300 ft 13 kts 70°
2026-05-07 19:24 37.93883 23.95344 299 ft 11 kts 99°
2026-05-07 19:25 37.93854 23.95450 297 ft 15 kts 78°
2026-05-07 19:25 37.93933 23.95550 299 ft 13 kts 37°
2026-05-07 19:25 37.94012 23.95623 299 ft 16 kts 34°
2026-05-07 19:25 37.94105 23.95713 300 ft 18 kts 37°
2026-05-07 19:26 37.94211 23.95812 299 ft 20 kts 37°
2026-05-07 19:26 37.94328 23.95924 298 ft 22 kts 36°
2026-05-07 19:26 37.94455 23.96045 299 ft 24 kts 36°
2026-05-07 19:26 37.94592 23.96175 302 ft 25 kts 37°
2026-05-07 19:27 37.94737 23.96313 302 ft 27 kts 37°
2026-05-07 19:27 37.94887 23.96455 304 ft 27 kts 37°
2026-05-07 19:27 37.95043 23.96603 303 ft 28 kts 37°
2026-05-07 19:27 37.95202 23.96753 302 ft 29 kts 37°
2026-05-07 19:28 37.95330 23.96875 303 ft 14 kts 38°
2026-05-07 19:28 37.95384 23.96938 302 ft 9 kts 60°
2026-05-07 19:28 37.95364 23.97006 304 ft 10 kts 151°
2026-05-07 19:28 37.95301 23.97025 308 ft 9 kts 171°
2026-05-07 19:29 37.95241 23.97037 309 ft 9 kts 171°
2026-05-07 19:29 37.95176 23.97006 309 ft 11 kts 214°
2026-05-07 19:29 37.95154 23.96987 311 ft 0 kts 217°
2026-05-07 19:30 37.95143 23.96976 310 ft 9 kts 217°
2026-05-07 19:30 37.94927 23.96771 306 ft 72 kts 217°
2026-05-07 19:30 37.94367 23.96239 289 ft 126 kts 217°
2026-05-07 19:30 37.93549 23.95471 327 ft 160 kts 217°
2026-05-07 19:31 37.92656 23.94664 808 ft 158 kts 215°
2026-05-07 19:31 37.91699 23.93931 1319 ft 162 kts 208°
2026-05-07 19:31 37.90700 23.93282 1899 ft 162 kts 205°
2026-05-07 19:31 37.89693 23.92662 2466 ft 161 kts 205°
2026-05-07 19:32 37.88699 23.92043 3028 ft 162 kts 206°
2026-05-07 19:32 37.87674 23.91392 3566 ft 170 kts 206°
2026-05-07 19:32 37.86579 23.90659 3997 ft 187 kts 207°
2026-05-07 19:32 37.85369 23.89836 4399 ft 210 kts 207°
2026-05-07 19:33 37.84002 23.88908 4814 ft 236 kts 207°
2026-05-07 19:33 37.82482 23.87873 5380 ft 255 kts 208°
2026-05-07 19:33 37.80922 23.86802 6396 ft 256 kts 208°
2026-05-07 19:33 37.79348 23.85750 7404 ft 256 kts 208°
2026-05-07 19:34 37.77746 23.84863 8368 ft 257 kts 194°
2026-05-07 19:34 37.75948 23.84836 9258 ft 265 kts 167°
2026-05-07 19:34 37.74297 23.85953 10009 ft 280 kts 138°
2026-05-07 19:34 37.73146 23.87994 10745 ft 291 kts 121°
2026-05-07 19:35 37.72158 23.90317 11202 ft 312 kts 119°
2026-05-07 19:35 37.71127 23.92847 11499 ft 337 kts 118°
2026-05-07 19:35 37.70018 23.95571 11759 ft 361 kts 118°
2026-05-07 19:35 37.68825 23.98478 12008 ft 384 kts 118°
2026-05-07 19:36 37.67575 24.01498 12251 ft 403 kts 118°
2026-05-07 19:36 37.66249 24.04688 12505 ft 414 kts 119°
2026-05-07 19:36 37.64905 24.07916 12765 ft 417 kts 119°
2026-05-07 19:36 37.63551 24.11161 13018 ft 419 kts 119°
2026-05-07 19:37 37.62193 24.14411 13134 ft 420 kts 119°
2026-05-07 19:37 37.60832 24.17665 13139 ft 419 kts 119°
2026-05-07 19:37 37.59473 24.20909 13139 ft 419 kts 119°
2026-05-07 19:37 37.58111 24.24159 13139 ft 418 kts 119°
2026-05-07 19:38 37.56751 24.27401 13135 ft 418 kts 119°
2026-05-07 19:38 37.55528 24.30665 13133 ft 418 kts 112°
2026-05-07 19:38 37.54595 24.34133 13138 ft 418 kts 108°
2026-05-07 19:38 37.53700 24.37616 13139 ft 418 kts 109°
2026-05-07 19:39 37.52801 24.41093 13138 ft 417 kts 109°
2026-05-07 19:39 37.51897 24.44569 13137 ft 417 kts 109°
2026-05-07 19:39 37.50992 24.48043 13138 ft 417 kts 109°
2026-05-07 19:39 37.50087 24.51506 13136 ft 417 kts 109°
2026-05-07 19:40 37.49180 24.54976 13138 ft 417 kts 109°
2026-05-07 19:40 37.48273 24.58438 13139 ft 416 kts 109°
2026-05-07 19:40 37.47381 24.61841 13143 ft 416 kts 109°
2026-05-07 19:40 37.46472 24.65307 13148 ft 416 kts 109°
2026-05-07 19:41 37.45565 24.68756 13149 ft 415 kts 109°
2026-05-07 19:41 37.44660 24.72196 13106 ft 412 kts 109°
2026-05-07 19:41 37.43761 24.75607 12701 ft 410 kts 109°
2026-05-07 19:41 37.42867 24.78993 12139 ft 406 kts 109°
2026-05-07 19:42 37.41980 24.82350 11467 ft 402 kts 109°
2026-05-07 19:42 37.41100 24.85677 10789 ft 399 kts 109°
2026-05-07 19:42 37.40228 24.88970 10150 ft 395 kts 109°
2026-05-07 19:42 37.39373 24.92195 9482 ft 392 kts 109°
2026-05-07 19:43 37.38522 24.95399 9093 ft 377 kts 109°
2026-05-07 19:43 37.37718 24.98424 8840 ft 354 kts 109°
2026-05-07 19:43 37.36963 25.01265 8623 ft 332 kts 109°
2026-05-07 19:43 37.36194 25.03911 8425 ft 312 kts 115°
2026-05-07 19:44 37.35258 25.06283 8112 ft 298 kts 117°
2026-05-07 19:44 37.34376 25.08506 7631 ft 293 kts 117°
2026-05-07 19:44 37.33477 25.10785 7201 ft 286 kts 117°
2026-05-07 19:45 37.32636 25.12924 7051 ft 268 kts 117°
2026-05-07 19:45 37.31834 25.14960 6914 ft 252 kts 117°
2026-05-07 19:45 37.31076 25.16879 6619 ft 243 kts 117°
2026-05-07 19:45 37.30317 25.18798 6093 ft 245 kts 117°
2026-05-07 19:46 37.29562 25.20703 5670 ft 243 kts 117°
2026-05-07 19:46 37.28814 25.22591 5255 ft 240 kts 118°
2026-05-07 19:46 37.28076 25.24453 4849 ft 238 kts 118°
2026-05-07 19:46 37.27339 25.26312 4406 ft 236 kts 118°
2026-05-07 19:47 37.26635 25.28088 4218 ft 224 kts 118°
2026-05-07 19:47 37.25955 25.29803 4070 ft 215 kts 118°
2026-05-07 19:47 37.25384 25.31524 3770 ft 217 kts 101°
2026-05-07 19:47 37.25532 25.33393 3437 ft 219 kts 71°
2026-05-07 19:48 37.26047 25.35175 3126 ft 219 kts 71°
2026-05-07 19:48 37.26572 25.36986 2845 ft 218 kts 71°
2026-05-07 19:48 37.27083 25.38767 2599 ft 215 kts 71°
2026-05-07 19:48 37.27843 25.40314 2449 ft 207 kts 39°
2026-05-07 19:49 37.29105 25.41026 2184 ft 203 kts
2026-05-07 19:49 37.30452 25.40708 2036 ft 199 kts 337°
2026-05-07 19:49 37.31763 25.40077 2000 ft 201 kts 337°
2026-05-07 19:49 37.33071 25.39455 2000 ft 201 kts 338°
2026-05-07 19:50 37.34387 25.38851 2005 ft 201 kts 338°
2026-05-07 19:50 37.35670 25.38278 1992 ft 188 kts 338°
2026-05-07 19:50 37.36880 25.37745 1770 ft 182 kts 338°
2026-05-07 19:50 37.38061 25.37234 1515 ft 175 kts 339°
2026-05-07 19:51 37.39161 25.36762 1318 ft 158 kts 339°
2026-05-07 19:51 37.40133 25.36333 1096 ft 145 kts 336°
2026-05-07 19:51 37.41056 25.35903 832 ft 139 kts 340°
2026-05-07 19:51 37.41953 25.35497 589 ft 135 kts 341°
2026-05-07 19:52 37.42842 25.35119 421 ft 136 kts 339°
2026-05-07 19:52 37.43631 25.34769 409 ft 88 kts 340°
2026-05-07 19:52 37.43975 25.34618 410 ft 36 kts 341°
2026-05-07 19:52 37.44183 25.34525 405 ft 19 kts 339°
2026-05-07 19:53 37.44247 25.34481 405 ft 5 kts 314°
2026-05-07 19:53 37.44254 25.34472 405 ft 4 kts 316°
2026-05-07 19:53 37.44287 25.34459 404 ft 3 kts 32°
2026-05-07 19:53 37.44289 25.34466 404 ft 0 kts 64°
2026-05-07 19:54 37.44282 25.34485 405 ft 4 kts 131°
2026-05-07 19:54 37.44259 25.34496 404 ft 2 kts 162°
2026-05-07 19:54 37.44208 25.34516 406 ft 14 kts 162°
2026-05-07 19:54 37.44081 25.34572 406 ft 22 kts 160°
2026-05-07 19:55 37.43932 25.34637 411 ft 23 kts 161°
2026-05-07 19:55 37.43775 25.34707 410 ft 25 kts 160°
2026-05-07 19:55 37.43675 25.34715 410 ft 14 kts 202°
2026-05-07 19:55 37.43611 25.34673 407 ft 7 kts 191°
2026-05-07 19:56 37.43556 25.34690 407 ft 9 kts 161°
2026-05-07 19:56 37.43540 25.34695 407 ft 3 kts 165°
2026-05-07 19:56 37.43513 25.34665 407 ft 6 kts 248°
2026-05-07 19:56 37.43508 25.34648 407 ft 0 kts 251°
2026-05-07 19:57 37.43507 25.34644 407 ft 0 kts 251°